Epoch,demod_status_bits,ebno,lock_status,signal_level,viterbi_ber
1664219136,C;S;V;F,14.2,0x00c000,-37.3,0.00e-0
1664219137,C;S;V;F,14.0,0x00c000,-37.5,0.00e-0
1664219138,C;S;V;F,14.2,0x00c000,-37.5,0.00e-0
1664219139,C;S;V;F,14.8,0x00c000,-36.9,0.00e-0
1664219140,,14.4,0x00c000,-37.2,
1664219141,C;S;V;F,14.5,0x00c000,-37.2,0.00e-0
1664219142,C;S;V;F,14.2,0x00c000,-37.2,0.00e-0
1664219143,C;S;V;F,14.5,0x00c000,-37.1,0.00e-0
1664219144,C;S;V;F,,0x00c000,-37.0,0.00e-0
1664219145,C;S;V;F,14.7,0x00c000,,0.00e-0
1664219146,C;S;V;F,14.6,0x00c000,-36.9,0.00e-0
1664219147,C;S;V;F,14.8,0x00c000,-37.0,0.00e-0
1664219148,C;S;V;F,15.1,0x00c000,-36.4,0.00e-0
1664219149,C;S;V;F,14.8,0x00c000,-37.3,0.00e-0
1664219150,C;S;V;F,14.6,0x00c000,-37.1,0.00e-0
1664219151,C;S;V;F,14.6,0x00c000,-36.7,0.00e-0
1664219152,C;S;V;F,14.9,0x00c000,-36.6,0.00e-0
1664219153,C;S;V;F,15.1,0x00c000,-36.5,0.00e-0
1664219154,C;S;V;F,14.9,0x00c000,-36.5,
1664219155,,15.0,0x00c000,-36.7,0.00e-0
1664219156,C;S;V;F,15.0,0x00c000,-36.8,0.00e-0
1664219157,C;S;V;F,15.3,0x00c000,-36.4,0.00e-0
1664219158,C;S;V;F,,0x00c000,-36.6,0.00e-0
1664219159,C;S;V;F,15.1,0x00c000,-36.4,0.00e-0
1664219160,C;S;V;F,15.3,0x00c000,,0.00e-0
1664219161,C;S;V;F,15.1,0x00c000,-36.5,0.00e-0
1664219162,C;S;V;F,15.2,0x00c000,-36.6,0.00e-0
1664219163,C;S;V;F,15.6,0x00c000,-36.4,0.00e-0
1664219164,C;S;V;F,15.0,0x00c000,-36.8,0.00e-0
1664219165,,15.2,0x00c000,-36.4,
1664219166,C;S;V;F,15.5,0x00c000,-36.4,0.00e-0
1664219167,C;S;V;F,,0x00c000,-36.4,0.00e-0
1664219168,C;S;V;F,15.5,0x00c000,-36.4,0.00e-0
1664219169,C;S;V;F,15.6,0x00c000,,0.00e-0
1664219170,C;S;V;F,15.5,0x00c000,-36.4,0.00e-0
1664219171,C;S;V;F,15.5,0x00c000,-36.3,0.00e-0
1664219173,C;S;V;F,15.3,0x00c000,-36.3,0.00e-0
1664219174,C;S;V;F,15.6,0x00c000,-36.3,0.00e-0
1664219175,C;S;V;F,15.6,0x00c000,-36.1,0.00e-0
1664219176,,15.2,0x00c000,-36.6,
1664219177,C;S;V;F,15.8,0x00c000,-36.3,0.00e-0
1664219178,C;S;V;F,15.6,0x00c000,-36.2,0.00e-0
1664219179,C;S;V;F,,0x00c000,-36.0,0.00e-0
1664219180,C;S;V;F,15.8,0x00c000,,0.00e-0
1664219181,C;S;V;F,15.6,0x00c000,-36.2,0.00e-0
1664219182,C;S;V;F,15.6,0x00c000,-36.3,0.00e-0
1664219183,C;S;V;F,15.7,0x00c000,-36.0,0.00e-0
1664219184,C;S;V;F,15.9,0x00c000,-35.8,0.00e-0
1664219185,C;S;V;F,16.1,0x00c000,-35.6,0.00e-0
1664219186,C;S;V;F,16.1,0x00c000,-35.9,0.00e-0
1664219187,C;S;V;F,16.1,0x00c000,-35.6,0.00e-0
1664219188,,16.0,0x00c000,-35.9,
1664219189,C;S;V;F,16.5,0x00c000,-35.6,0.00e-0
1664219190,C;S;V;F,16.5,0x00c000,-35.8,0.00e-0
1664219191,C;S;V;F,,0x00c000,-35.7,0.00e-0
1664219192,C;S;V;F,16.1,0x00c000,,0.00e-0
1664219193,C;S;V;F,16.1,0x00c000,-35.6,0.00e-0
1664219194,C;S;V;F,16.2,0x00c000,-35.6,0.00e-0
1664219195,C;S;V;F,16.4,0x00c000,-35.5,0.00e-0
1664219196,C;S;V;F,16.4,0x00c000,-35.6,0.00e-0
1664219197,C;S;V;F,16.3,0x00c000,-35.5,0.00e-0
1664219198,C;S;V;F,16.2,0x00c000,-35.6,0.00e-0
1664219199,C;S;V;F,16.3,0x00c000,-35.6,0.00e-0
1664219200,C;S;V;F,16.2,0x00c000,-35.5,
1664219201,,16.6,0x00c000,-35.4,0.00e-0
1664219202,C;S;V;F,16.4,0x00c000,-35.6,0.00e-0
1664219203,C;S;V;F,16.2,0x00c000,-35.6,0.00e-0
1664219204,C;S;V;F,,0x00c000,-35.5,0.00e-0
1664219205,C;S;V;F,16.3,0x00c000,,0.00e-0
1664219206,C;S;V;F,16.4,0x00c000,-35.6,0.00e-0
1664219207,C;S;V;F,16.5,0x00c000,-35.5,0.00e-0
1664219208,C;S;V;F,16.2,0x00c000,-35.6,0.00e-0
1664219209,C;S;V;F,16.5,0x00c000,-35.4,0.00e-0
1664219210,C;S;V;F,16.3,0x00c000,-35.3,0.00e-0
1664219211,C;S;V;F,16.3,0x00c000,-35.4,0.00e-0
1664219212,C;S;V;F,16.4,0x00c000,-35.6,0.00e-0
1664219213,,16.5,0x00c000,-35.5,
1664219214,C;S;V;F,16.4,0x00c000,-35.6,0.00e-0
1664219215,C;S;V;F,16.6,0x00c000,-35.4,0.00e-0
1664219216,C;S;V;F,16.5,0x00c000,-35.5,0.00e-0
1664219217,C;S;V;F,,0x00c000,-35.5,0.00e-0
1664219218,C;S;V;F,16.5,0x00c000,-35.5,0.00e-0
1664219219,C;S;V;F,16.6,0x00c000,,0.00e-0
1664219220,C;S;V;F,16.5,0x00c000,-35.4,0.00e-0
1664219221,C;S;V;F,16.5,0x00c000,-35.5,0.00e-0
1664219222,C;S;V;F,16.5,0x00c000,-35.3,0.00e-0
1664219223,C;S;V;F,16.8,0x00c000,-35.4,0.00e-0
1664219224,C;S;V;F,16.6,0x00c000,-35.4,0.00e-0
1664219225,C;S;V;F,16.6,0x00c000,-35.5,0.00e-0
1664219226,C;S;V;F,16.2,0x00c000,-35.6,0.00e-0
1664219227,C;S;V;F,16.2,0x00c000,-35.2,0.00e-0
1664219228,C;S;V;F,16.4,0x00c000,-35.5,0.00e-0
1664219229,C;S;V;F,16.6,0x00c000,-35.5,
1664219230,,16.3,0x00c000,-35.7,0.00e-0
1664219231,C;S;V;F,16.5,0x00c000,-35.4,0.00e-0
1664219232,C;S;V;F,16.6,0x00c000,-35.9,0.00e-0
1664219233,C;S;V;F,,0x00c000,,0.00e-0
1664219237,C;S;V;F,16.6,0x00c000,-35.5,0.00e-0
1664219239,C;S;V;F,16.7,0x00c000,-35.5,0.00e-0
1664219240,C;S;V;F,16.6,0x00c000,-35.6,0.00e-0
1664219241,,16.4,0x00c000,-35.6,
1664219242,C;S;V;F,16.3,0x00c000,-35.5,0.00e-0
1664219243,C;S;V;F,16.6,0x00c000,-35.6,0.00e-0
1664219244,C;S;V;F,,0x00c000,-35.6,0.00e-0
1664219245,C;S;V;F,16.4,0x00c000,-35.6,0.00e-0
1664219246,C;S;V;F,16.6,0x00c000,,0.00e-0
1664219247,C;S;V;F,16.8,0x00c000,-35.5,0.00e-0
1664219248,C;S;V;F,16.6,0x00c000,-35.6,0.00e-0
1664219249,C;S;V;F,16.6,0x00c000,-35.6,0.00e-0
1664219250,C;S;V;F,16.4,0x00c000,-35.6,0.00e-0
1664219251,C;S;V;F,16.7,0x00c000,-35.5,0.00e-0
1664219252,C;S;V;F,16.5,0x00c000,-35.3,
1664219253,,16.6,0x00c000,-35.6,0.00e-0
1664219254,C;S;V;F,16.4,0x00c000,-35.6,0.00e-0
1664219255,C;S;V;F,,0x00c000,-35.5,0.00e-0
1664219256,C;S;V;F,16.7,0x00c000,-35.6,0.00e-0
1664219257,C;S;V;F,16.8,0x00c000,,0.00e-0
1664219258,C;S;V;F,16.6,0x00c000,-35.4,0.00e-0
1664219259,C;S;V;F,16.5,0x00c000,-35.6,0.00e-0
1664219260,C;S;V;F,16.5,0x00c000,-35.6,0.00e-0
1664219261,C;S;V;F,16.7,0x00c000,-35.8,0.00e-0
1664219262,C;S;V;F,16.6,0x00c000,-35.6,0.00e-0
1664219263,C;S;V;F,16.5,0x00c000,-35.7,0.00e-0
1664219264,C;S;V;F,16.4,0x00c000,-35.7,0.00e-0
1664219265,C;S;V;F,16.5,0x00c000,-35.6,
1664219266,,16.6,0x00c000,-35.6,0.00e-0
1664219267,C;S;V;F,16.7,0x00c000,-35.5,0.00e-0
1664219268,C;S;V;F,,0x00c000,-35.6,0.00e-0
1664219269,C;S;V;F,16.8,0x00c000,-35.4,0.00e-0
1664219270,C;S;V;F,16.7,0x00c000,,0.00e-0
1664219271,C;S;V;F,16.8,0x00c000,-35.5,0.00e-0
1664219272,C;S;V;F,16.7,0x00c000,-35.5,0.00e-0
1664219273,C;S;V;F,16.6,0x00c000,-35.6,0.00e-0
1664219274,C;S;V;F,17.0,0x00c000,-35.5,0.00e-0
1664219275,C;S;V;F,16.8,0x00c000,-35.4,0.00e-0
1664219276,C;S;V;F,16.7,0x00c000,-35.5,0.00e-0
1664219277,C;S;V;F,16.8,0x00c000,-35.5,
1664219278,,16.6,0x00c000,-35.6,0.00e-0
1664219279,C;S;V;F,16.6,0x00c000,-35.6,0.00e-0
1664219280,C;S;V;F,16.8,0x00c000,-35.6,0.00e-0
1664219281,C;S;V;F,,0x00c000,-35.7,0.00e-0
1664219282,C;S;V;F,16.5,0x00c000,,0.00e-0
1664219283,C;S;V;F,16.6,0x00c000,-35.7,0.00e-0
1664219284,C;S;V;F,16.7,0x00c000,-35.7,0.00e-0
1664219285,C;S;V;F,16.5,0x00c000,-35.8,0.00e-0
1664219286,C;S;V;F,16.5,0x00c000,-35.8,0.00e-0
1664219287,C;S;V;F,16.5,0x00c000,-35.7,0.00e-0
1664219288,C;S;V;F,16.6,0x00c000,-35.9,
1664219289,,16.4,0x00c000,-35.9,0.00e-0
1664219290,C;S;V;F,16.8,0x00c000,-35.6,0.00e-0
1664219291,C;S;V;F,16.6,0x00c000,-35.6,0.00e-0
1664219292,C;S;V;F,16.6,0x00c000,-35.6,0.00e-0
1664219293,C;S;V;F,,0x00c000,-35.6,0.00e-0
1664219294,C;S;V;F,16.7,0x00c000,,0.00e-0
1664219295,C;S;V;F,16.7,0x00c000,-35.5,0.00e-0
1664219296,C;S;V;F,16.9,0x00c000,-35.5,0.00e-0
1664219297,C;S;V;F,16.5,0x00c000,-35.4,0.00e-0
1664219298,C;S;V;F,16.8,0x00c000,-35.4,0.00e-0
1664219299,C;S;V;F,17.1,0x00c000,-35.2,0.00e-0
1664219302,C;S;V;F,17.0,0x00c000,-35.1,0.00e-0
1664219303,C;S;V;F,17.3,0x00c000,-34.8,0.00e-0
1664219304,,17.3,0x00c000,-35.0,
1664219305,C;S;V;F,17.4,0x00c000,-34.7,0.00e-0
1664219306,C;S;V;F,17.4,0x00c000,-34.6,0.00e-0
1664219307,C;S;V;F,,0x00c000,-34.5,0.00e-0
1664219308,C;S;V;F,17.5,0x00c000,,0.00e-0
1664219309,C;S;V;F,17.5,0x00c000,-34.5,0.00e-0
1664219310,C;S;V;F,17.8,0x00c000,-34.5,0.00e-0
1664219311,C;S;V;F,17.6,0x00c000,-34.2,0.00e-0
1664219312,C;S;V;F,17.6,0x00c000,-34.3,0.00e-0
1664219313,C;S;V;F,17.9,0x00c000,-34.2,0.00e-0
1664219314,C;S;V;F,17.8,0x00c000,-34.3,0.00e-0
1664219315,C;S;V;F,17.8,0x00c000,-34.0,0.00e-0
1664219316,C;S;V;F,17.9,0x00c000,-34.2,
1664219317,,18.0,0x00c000,-34.0,0.00e-0
1664219318,C;S;V;F,17.9,0x00c000,-33.9,0.00e-0
1664219319,C;S;V;F,18.1,0x00c000,-33.9,0.00e-0
1664219320,C;S;V;F,,0x00c000,-33.9,0.00e-0
1664219321,C;S;V;F,18.1,0x00c000,-33.7,0.00e-0
1664219322,C;S;V;F,18.0,0x00c000,,0.00e-0
1664219323,C;S;V;F,18.1,0x00c000,-33.7,0.00e-0
1664219324,C;S;V;F,18.3,0x00c000,-33.7,0.00e-0
1664219325,C;S;V;F,18.3,0x00c000,-33.6,0.00e-0
1664219326,C;S;V;F,18.2,0x00c000,-33.6,0.00e-0
1664219327,C;S;V;F,18.2,0x00c000,-33.6,0.00e-0
1664219328,C;S;V;F,18.2,0x00c000,-33.6,
1664219329,,18.1,0x00c000,-33.6,0.00e-0
1664219330,C;S;V;F,18.2,0x00c000,-33.8,0.00e-0
1664219331,C;S;V;F,,0x00c000,-33.9,0.00e-0
1664219332,C;S;V;F,18.0,0x00c000,-33.8,0.00e-0
1664219333,C;S;V;F,18.2,0x00c000,,0.00e-0
1664219334,C;S;V;F,18.2,0x00c000,-33.9,0.00e-0
1664219335,C;S;V;F,17.9,0x00c000,-33.9,0.00e-0
1664219336,C;S;V;F,17.9,0x00c000,-34.0,0.00e-0
1664219337,C;S;V;F,17.8,0x00c000,-34.2,0.00e-0
1664219338,C;S;V;F,17.8,0x00c000,-34.3,0.00e-0
1664219339,C;S;V;F,17.5,0x00c000,-34.5,0.00e-0
1664219340,C;S;V;F,17.7,0x00c000,-34.4,0.00e-0
1664219341,,17.4,0x00c000,-34.7,
1664219342,C;S;V;F,17.5,0x00c000,-34.8,0.00e-0
1664219343,C;S;V;F,17.6,0x00c000,-34.8,0.00e-0
1664219344,C;S;V;F,17.1,0x00c000,-34.9,0.00e-0
1664219345,C;S;V;F,,0x00c000,-35.0,0.00e-0
1664219346,C;S;V;F,17.5,0x00c000,-35.2,0.00e-0
1664219347,C;S;V;F,17.1,0x00c000,,0.00e-0
1664219348,C;S;V;F,16.9,0x00c000,-35.2,0.00e-0
1664219349,C;S;V;F,17.0,0x00c000,-35.4,0.00e-0
1664219350,C;S;V;F,16.6,0x00c000,-35.7,0.00e-0
1664219351,C;S;V;F,16.7,0x00c000,-36.0,0.00e-0
1664219352,C;S;V;F,16.5,0x00c000,-36.1,0.00e-0
1664219353,C;S;V;F,16.2,0x00c000,-36.4,
1664219354,,16.0,0x00c000,-36.7,0.00e-0
1664219355,C;S;V;F,16.1,0x00c000,-36.8,0.00e-0
1664219356,C;S;V;F,15.4,0x00c000,-37.2,0.00e-0
1664219357,C;S;V;F,,0x00c000,-37.2,0.00e-0
1664219358,C;S;V;F,15.4,0x00c000,-37.4,0.00e-0
1664219359,C;S;V;F,15.4,0x00c000,,0.00e-0
1664219360,C;S;V;F,15.1,0x00c000,-37.5,0.00e-0
1664219361,C;S;V;F,15.1,0x00c000,-37.7,0.00e-0
1664219362,C;S;V;F,14.7,0x00c000,-37.9,0.00e-0
1664219364,,,0x00c000,-38.5,
1664219365,C;S;V;F,14.2,0x00c000,-38.4,0.00e-0
1664219366,C;S;V;F,14.1,0x00c000,,0.00e-0
1664219367,C;S;V;F,14.5,0x00c000,-38.3,0.00e-0
1664219368,C;S;V;F,14.5,0x00c000,-38.0,0.00e-0
1664219369,C;S;V;F,14.6,0x00c000,-38.0,0.00e-0
1664219370,C;S;V;F,14.7,0x00c000,-38.1,0.00e-0
1664219371,C;S;V;F,15.0,0x00c000,-38.0,0.00e-0
1664219372,C;S;V;F,14.8,0x00c000,-37.9,0.00e-0
1664219373,C;S;V;F,15.0,0x00c000,-37.8,0.00e-0
1664219374,C;S;V;F,14.9,0x00c000,-37.8,
1664219375,,14.9,0x00c000,-37.9,0.00e-0
1664219376,C;S;V;F,15.1,0x00c000,-37.8,0.00e-0
1664219377,C;S;V;F,15.1,0x00c000,-38.0,0.00e-0
1664219378,C;S;V;F,,0x00c000,,0.00e-0
1664219379,C;S;V;F,14.8,0x00c000,-38.0,0.00e-0
1664219380,C;S;V;F,14.7,0x00c000,-37.8,0.00e-0
1664219381,C;S;V;F,14.7,0x00c000,-37.9,0.00e-0
1664219382,C;S;V;F,14.7,0x00c000,-38.0,0.00e-0
1664219383,C;S;V;F,14.7,0x00c000,-38.0,0.00e-0
1664219384,C;S;V;F,14.9,0x00c000,-38.0,0.00e-0
1664219385,C;S;V;F,15.2,0x00c000,-37.8,
1664219386,,15.3,0x00c000,-37.4,0.00e-0
1664219387,C;S;V;F,15.3,0x00c000,-37.2,0.00e-0
1664219388,C;S;V;F,15.8,0x00c000,-36.8,0.00e-0
1664219389,C;S;V;F,,0x00c000,-36.6,0.00e-0
1664219390,C;S;V;F,15.8,0x00c000,,0.00e-0
1664219391,C;S;V;F,15.8,0x00c000,-36.8,0.00e-0
1664219392,C;S;V;F,15.8,0x00c000,-36.7,0.00e-0
1664219393,C;S;V;F,15.7,0x00c000,-36.8,0.00e-0
1664219394,C;S;V;F,15.9,0x00c000,-36.9,0.00e-0
1664219395,C;S;V;F,15.8,0x00c000,-36.7,0.00e-0
1664219396,C;S;V;F,16.0,0x00c000,-36.5,0.00e-0
1664219397,C;S;V;F,16.2,0x00c000,-36.4,0.00e-0
1664219398,C;S;V;F,16.1,0x00c000,-36.3,
1664219399,,16.1,0x00c000,-36.4,0.00e-0
1664219400,C;S;V;F,16.4,0x00c000,-36.4,0.00e-0
1664219401,C;S;V;F,,0x00c000,-35.7,0.00e-0
1664219402,C;S;V;F,16.6,0x00c000,-35.5,0.00e-0
1664219403,C;S;V;F,16.7,0x00c000,,0.00e-0
1664219404,C;S;V;F,17.3,0x00c000,-35.2,0.00e-0
1664219405,C;S;V;F,17.0,0x00c000,-35.0,0.00e-0
1664219406,C;S;V;F,17.2,0x00c000,-35.2,0.00e-0
1664219407,C;S;V;F,17.0,0x00c000,-35.2,0.00e-0
1664219408,C;S;V;F,16.7,0x00c000,-35.7,0.00e-0
1664219409,C;S;V;F,16.6,0x00c000,-35.7,0.00e-0
1664219410,C;S;V;F,16.8,0x00c000,-35.6,0.00e-0
1664219411,C;S;V;F,17.0,0x00c000,-35.5,
1664219412,,16.9,0x00c000,-35.5,0.00e-0
1664219413,C;S;V;F,16.8,0x00c000,-35.7,0.00e-0
1664219414,C;S;V;F,,0x00c000,-35.6,0.00e-0
1664219415,C;S;V;F,16.9,0x00c000,-35.6,0.00e-0
1664219416,C;S;V;F,16.4,0x00c000,,0.00e-0
1664219417,C;S;V;F,16.7,0x00c000,-35.6,0.00e-0
1664219418,C;S;V;F,16.7,0x00c000,-35.8,0.00e-0
1664219419,C;S;V;F,16.4,0x00c000,-36.4,0.00e-0
1664219420,C;S;V;F,16.0,0x00c000,-37.0,0.00e-0
1664219421,C;S;V;F,15.9,0x00c000,-37.0,0.00e-0
1664219422,C;S;V;F,15.5,0x00c000,-37.1,0.00e-0
1664219423,C;S;V;F,15.5,0x00c000,-36.8,0.00e-0
1664219424,C;S;V;F,15.6,0x00c000,-36.8,0.00e-0
1664219426,C;S;V;F,15.3,0x00c000,-37.5,0.00e-0
1664219427,,14.7,0x00c000,-38.2,
1664219428,C;S;V;F,14.5,0x00c000,-38.5,0.00e-0
1664219429,C;S;V;F,14.6,0x00c000,-38.3,0.00e-0
1664219430,C;S;V;F,,0x00c000,-38.0,0.00e-0
1664219431,C;S;V;F,14.3,0x00c000,,0.00e-0
1664219432,C;S;V;F,14.3,0x00c000,-38.4,0.00e-0
1664219433,C;S;V;F,14.0,0x00c000,-38.7,0.00e-0
1664219434,C;S;V;F,13.5,0x00c000,-39.3,0.00e-0
1664219435,C;S;V;F,13.1,0x00c000,-39.7,0.00e-0
1664219436,C;S;V;F,13.1,0x00c000,-39.6,0.00e-0
1664219437,C;S;V;F,13.3,0x00c000,-39.5,0.00e-0
1664219438,C;S;V;F,13.6,0x00c000,-39.1,0.00e-0
1664219439,C;S;V;F,14.2,0x00c000,-38.6,0.00e-0
1664219440,C;S;V;F,14.4,0x00c000,-38.4,
1664219441,,14.1,0x00c000,-38.8,0.00e-0
1664219442,C;S;V;F,13.5,0x00c000,-39.4,0.00e-0
1664219443,C;S;V;F,13.3,0x00c000,-39.2,0.00e-0
1664219444,C;S;V;F,,0x00c000,-38.3,0.00e-0
1664219445,C;S;V;F,14.0,0x00c000,,0.00e-0
1664219446,C;S;V;F,14.7,0x00c000,-37.8,0.00e-0
1664219447,C;S;V;F,15.9,0x00c000,-37.1,0.00e-0
1664219448,C;S;V;F,16.1,0x00c000,-36.5,0.00e-0
1664219449,C;S;V;F,16.0,0x00c000,-36.5,0.00e-0
1664219450,C;S;V;F,16.2,0x00c000,-36.5,0.00e-0
1664219451,C;S;V;F,16.3,0x00c000,-36.4,
1664219452,,16.5,0x00c000,-35.9,0.00e-0
1664219453,C;S;V;F,17.0,0x00c000,-35.5,0.00e-0
1664219454,C;S;V;F,17.2,0x00c000,-35.2,0.00e-0
1664219455,C;S;V;F,,0x00c000,-35.1,0.00e-0
1664219456,C;S;V;F,17.2,0x00c000,,0.00e-0
1664219457,C;S;V;F,16.9,0x00c000,-35.3,0.00e-0
1664219458,C;S;V;F,17.1,0x00c000,-35.2,0.00e-0
1664219459,C;S;V;F,17.6,0x00c000,-34.8,0.00e-0
1664219460,C;S;V;F,17.9,0x00c000,-34.2,0.00e-0
1664219461,C;S;V;F,18.1,0x00c000,-34.0,0.00e-0
1664219462,C;S;V;F,17.7,0x00c000,-34.5,
1664219463,,17.5,0x00c000,-34.7,0.00e-0
1664219464,C;S;V;F,17.5,0x00c000,-34.8,0.00e-0
1664219465,C;S;V;F,,0x00c000,,0.00e-0
1664219466,C;S;V;F,17.5,0x00c000,-34.7,0.00e-0
1664219467,C;S;V;F,17.8,0x00c000,-34.3,0.00e-0
1664219468,C;S;V;F,17.8,0x00c000,-34.2,
1664219469,,17.4,0x00c000,-34.8,0.00e-0
1664219470,C;S;V;F,,0x00c000,-35.5,0.00e-0
1664219471,C;S;V;F,17.1,0x00c000,,0.00e-0
1664219472,C;S;V;F,17.1,0x00c000,-35.0,0.00e-0
1664219473,C;S;V;F,17.4,0x00c000,-34.6,0.00e-0
1664219474,C;S;V;F,17.4,0x00c000,-34.8,0.00e-0
1664219475,C;S;V;F,17.6,0x00c000,-34.9,0.00e-0
1664219476,C;S;V;F,17.3,0x00c000,-35.3,0.00e-0
1664219477,C;S;V;F,16.5,0x00c000,-35.7,0.00e-0
1664219478,C;S;V;F,16.7,0x00c000,-35.7,0.00e-0
1664219479,C;S;V;F,17.4,0x00c000,-35.2,
1664219480,,17.4,0x00c000,-35.2,0.00e-0
1664219481,C;S;V;F,16.7,0x00c000,-35.7,0.00e-0
1664219482,C;S;V;F,16.6,0x00c000,-35.8,0.00e-0
1664219483,C;S;V;F,,0x00c000,-36.2,0.00e-0
1664219484,C;S;V;F,16.5,0x00c000,-36.0,0.00e-0
1664219485,C;S;V;F,16.4,0x00c000,,0.00e-0
1664219486,C;S;V;F,16.7,0x00c000,-35.8,0.00e-0
1664219487,C;S;V;F,17.0,0x00c000,-35.2,0.00e-0
1664219489,C;S;V;F,16.4,0x00c000,-36.4,0.00e-0
1664219490,,16.0,0x00c000,-36.5,
1664219491,C;S;V;F,15.9,0x00c000,-36.9,0.00e-0
1664219492,C;S;V;F,,0x00c000,-37.1,0.00e-0
1664219493,C;S;V;F,15.6,0x00c000,,0.00e-0
1664219494,C;S;V;F,15.3,0x00c000,-37.8,0.00e-0
1664219495,C;S;V;F,14.6,0x00c000,-38.5,0.00e-0
1664219496,C;S;V;F,14.0,0x00c000,-38.8,0.00e-0
1664219497,C;S;V;F,13.9,0x00c000,-38.3,
1664219498,,13.8,0x00c000,-38.7,0.00e-0
1664219499,C;S;V;F,13.9,0x00c000,-38.6,0.00e-0
1664219500,C;S;V;F,,0x00c000,-38.8,0.00e-0
1664219501,C;S;V;F,13.7,0x00c000,-38.8,0.00e-0
1664219502,C;S;V;F,13.7,0x00c000,,0.00e-0
1664219503,C;S;V;F,13.7,0x00c000,-38.8,0.00e-0
1664219504,C;S;V;F,13.5,0x00c000,-39.1,0.00e-0
1664219505,C;S;V;F,13.5,0x00c000,-39.0,0.00e-0
1664219506,C;S;V;F,14.2,0x00c000,-38.1,0.00e-0
1664219507,C;S;V;F,14.8,0x00c000,-38.0,0.00e-0
1664219508,C;S;V;F,14.7,0x00c000,-38.2,0.00e-0
1664219509,,16.0,0x00c000,-37.2,
1664219510,C;S;V;F,16.6,0x00c000,-35.8,0.00e-0
1664219511,C;S;V;F,17.3,0x00c000,-35.3,0.00e-0
1664219512,C;S;V;F,,0x00c000,-35.0,0.00e-0
1664219513,C;S;V;F,17.5,0x00c000,-35.5,0.00e-0
1664219514,C;S;V;F,17.0,0x00c000,,0.00e-0
1664219515,C;S;V;F,16.0,0x00c000,-36.7,0.00e-0
1664219516,C;S;V;F,15.8,0x00c000,-37.1,0.00e-0
1664219517,C;S;V;F,15.8,0x00c000,-36.7,0.00e-0
1664219518,C;S;V;F,15.3,0x00c000,-37.6,0.00e-0
1664219519,C;S;V;F,14.1,0x00c000,-38.6,0.00e-0
1664219520,C;S;V;F,13.8,0x00c000,-39.2,0.00e-0
1664219521,C;S;V;F,13.3,0x00c000,-39.5,0.00e-0
1664219522,C;S;V;F,12.3,0x00c000,-40.8,
1664219523,,11.5,0x00c000,-41.1,3.03e-7
1664219524,C;S;V;F,11.5,0x00c000,-41.2,8.16e-6
1664219525,C;S;V;F,13.2,0x00c000,-39.2,1.49e-5
1664219526,C;S;V;F,,0x00c000,-38.0,6.35e-6
1664219527,C;S;V;F,14.6,0x00c000,-38.2,1.51e-7
1664219528,C;S;V;F,14.4,0x00c000,,0.00e-0
1664219529,C;S;V;F,14.4,0x00c000,-38.9,0.00e-0
1664219530,C;S;V;F,13.8,0x00c000,-38.8,0.00e-0
1664219531,C;S;V;F,14.3,0x00c000,-38.2,0.00e-0
1664219532,C;S;V;F,16.0,0x00c000,-37.0,0.00e-0
1664219533,C;S;V;F,16.0,0x00c000,-36.5,0.00e-0
1664219534,C;S;V;F,16.1,0x00c000,-36.7,0.00e-0
1664219535,C;S;V;F,16.0,0x00c000,-36.2,
1664219536,,17.1,0x00c000,-34.8,0.00e-0
1664219537,C;S;V;F,,0x00c000,,0.00e-0
1664219540,C;S;V;F,18.8,0x00c000,-32.6,0.00e-0
1664219541,C;S;V;F,18.8,0x00c000,-32.3,
1664219542,C;S;V;F,18.9,0x00c000,-32.0,0.00e-0
1664219543,,19.1,0x00c000,-31.7,0.00e-0
1664219544,C;S;V;F,19.3,0x00c000,-31.6,0.00e-0
1664219545,C;S;V;F,,0x00c000,-31.8,0.00e-0
1664219546,C;S;V;F,18.9,0x00c000,-31.7,0.00e-0
1664219547,C;S;V;F,19.1,0x00c000,,0.00e-0
1664219548,C;S;V;F,19.2,0x00c000,-31.5,0.00e-0
1664219549,C;S;V;F,19.1,0x00c000,-31.5,0.00e-0
1664219550,C;S;V;F,19.1,0x00c000,-31.7,0.00e-0
1664219552,C;S;V;F,18.5,0x00c000,-33.1,0.00e-0
1664219553,C;S;V;F,18.3,0x00c000,-33.6,
1664219554,,18.2,0x00c000,-33.6,0.00e-0
1664219555,C;S;V;F,18.3,0x00c000,-33.9,0.00e-0
1664219556,C;S;V;F,17.7,0x00c000,-35.2,0.00e-0
1664219557,C;S;V;F,,0x00c000,-37.2,0.00e-0
1664219558,C;S;V;F,16.2,0x00c000,-37.5,0.00e-0
1664219559,C;S;V;F,15.2,0x00c000,,0.00e-0
1664219560,C;S;V;F,15.3,0x00c000,-36.7,0.00e-0
1664219561,C;S;V;F,16.3,0x00c000,-36.0,0.00e-0
1664219562,C;S;V;F,14.9,0x00c000,-37.6,0.00e-0
1664219563,C;S;V;F,12.5,0x00c000,-40.6,1.51e-7
1664219564,C;S;V;F,11.9,0x00c000,-40.9,6.35e-6
1664219565,C;S;V;F,13.7,0x00c000,-38.7,
1664219566,,14.7,0x00c000,-38.0,4.38e-6
1664219567,C;S;V;F,14.6,0x00c000,-38.5,0.00e-0
1664219568,C;S;V;F,,0x00c000,-39.0,0.00e-0
1664219569,C;S;V;F,13.8,0x00c000,-40.0,0.00e-0
1664219570,C;S;V;F,12.9,0x00c000,-39.6,1.51e-7
1664219571,C;S;V;F,12.7,0x00c000,,7.57e-7
1664219572,C;S;V;F,13.4,0x00c000,-38.7,3.03e-7
1664219573,C;S;V;F,14.9,0x00c000,-37.0,0.00e-0
1664219574,C;S;V;F,15.9,0x00c000,-36.7,0.00e-0
1664219575,C;S;V;F,15.2,0x00c000,-38.2,0.00e-0
1664219576,C;S;V;F,12.9,0x00c000,-40.6,3.03e-7
1664219577,C;S;V;F,12.3,0x00c000,-39.9,2.42e-6
1664219578,C;S;V;F,14.3,0x00c000,-37.7,1.05e-6
1664219579,C;S;V;F,15.9,0x00c000,-36.4,0.00e-0
1664219580,C;S;V;F,15.9,0x00c000,-37.4,
1664219581,,14.6,0x00c000,-38.0,0.00e-0
1664219582,C;S;V;F,13.8,0x00c000,-38.8,0.00e-0
1664219583,C;S;V;F,,0x00c000,-38.4,0.00e-0
1664219584,C;S;V;F,14.3,0x00c000,,0.00e-0
1664219585,C;S;V;F,14.7,0x00c000,-37.7,0.00e-0
1664219586,C;S;V;F,15.5,0x00c000,-37.0,0.00e-0
1664219587,C;S;V;F,15.3,0x00c000,-37.1,0.00e-0
1664219588,C;S;V;F,15.1,0x00c000,-37.5,0.00e-0
1664219589,C;S;V;F,14.3,0x00c000,-38.4,0.00e-0
1664219590,C;S;V;F,14.1,0x00c000,-38.7,0.00e-0
1664219591,C;S;V;F,14.6,0x00c000,-38.3,
1664219592,,14.8,0x00c000,-38.0,0.00e-0
1664219593,C;S;V;F,14.4,0x00c000,-38.2,0.00e-0
1664219594,C;S;V;F,14.4,0x00c000,-38.3,0.00e-0
1664219595,C;S;V;F,14.4,0x00c000,-38.0,0.00e-0
1664219596,C;S;V;F,,0x00c000,-38.0,0.00e-0
1664219597,C;S;V;F,14.5,0x00c000,,0.00e-0
1664219598,C;S;V;F,14.8,0x00c000,-38.4,0.00e-0
1664219599,C;S;V;F,13.9,0x00c000,-39.1,0.00e-0
1664219600,C;S;V;F,13.2,0x00c000,-39.5,0.00e-0
1664219601,C;S;V;F,13.7,0x00c000,-38.4,0.00e-0
1664219602,C;S;V;F,14.9,0x00c000,-37.5,0.00e-0
1664219603,C;S;V;F,15.3,0x00c000,-37.3,0.00e-0
1664219604,C;S;V;F,15.3,0x00c000,-37.8,0.00e-0
1664219605,C;S;V;F,14.9,0x00c000,-37.9,
1664219606,,14.4,0x00c000,-38.2,0.00e-0
1664219607,C;S;V;F,14.0,0x00c000,-38.7,0.00e-0
1664219608,C;S;V;F,,0x00c000,-39.5,0.00e-0
1664219609,C;S;V;F,13.2,0x00c000,-39.7,0.00e-0
1664219610,C;S;V;F,13.0,0x00c000,,1.51e-7
1664219611,C;S;V;F,14.0,0x00c000,-38.3,1.51e-7
1664219612,C;S;V;F,15.3,0x00c000,-37.1,0.00e-0
1664219613,C;S;V;F,16.3,0x00c000,-35.7,0.00e-0
1664219615,,,0x00c000,-38.7,
1664219616,C;S;V;F,13.7,0x00c000,-39.5,0.00e-0
1664219617,C;S;V;F,13.4,0x00c000,,0.00e-0
1664219618,C;S;V;F,14.7,0x00c000,-38.1,0.00e-0
1664219619,C;S;V;F,16.3,0x00c000,-36.2,0.00e-0
1664219620,C;S;V;F,17.2,0x00c000,-35.1,0.00e-0
1664219621,C;S;V;F,17.3,0x00c000,-34.8,0.00e-0
1664219622,C;S;V;F,16.6,0x00c000,-35.6,0.00e-0
1664219623,C;S;V;F,16.0,0x00c000,-36.8,0.00e-0
1664219624,C;S;V;F,14.9,0x00c000,-37.9,0.00e-0
1664219625,C;S;V;F,14.2,0x00c000,-38.7,0.00e-0
1664219626,C;S;V;F,14.2,0x00c000,-38.4,
1664219627,,15.0,0x00c000,-37.6,0.00e-0
1664219628,C;S;V;F,15.9,0x00c000,-36.4,0.00e-0
1664219629,C;S;V;F,16.7,0x00c000,-35.3,0.00e-0
1664219630,C;S;V;F,,0x00c000,-34.7,0.00e-0
1664219631,C;S;V;F,17.4,0x00c000,-34.6,0.00e-0
1664219632,C;S;V;F,17.3,0x00c000,,0.00e-0
1664219633,C;S;V;F,16.6,0x00c000,-35.2,0.00e-0
1664219634,C;S;V;F,15.8,0x00c000,-36.5,0.00e-0
1664219635,C;S;V;F,14.9,0x00c000,-37.5,0.00e-0
1664219636,C;S;V;F,14.2,0x00c000,-38.4,0.00e-0
1664219637,C;S;V;F,14.4,0x00c000,-38.3,0.00e-0
1664219638,C;S;V;F,15.1,0x00c000,-37.7,0.00e-0
1664219639,C;S;V;F,15.9,0x00c000,-36.6,0.00e-0
1664219640,C;S;V;F,16.3,0x00c000,-35.8,
1664219641,,16.6,0x00c000,-35.8,0.00e-0
1664219642,C;S;V;F,16.7,0x00c000,-35.6,0.00e-0
1664219643,C;S;V;F,16.6,0x00c000,-35.9,0.00e-0
1664219644,C;S;V;F,,0x00c000,-36.4,0.00e-0
1664219645,C;S;V;F,16.2,0x00c000,,0.00e-0
1664219646,C;S;V;F,15.9,0x00c000,-36.5,0.00e-0
1664219647,C;S;V;F,15.7,0x00c000,-37.2,0.00e-0
1664219648,C;S;V;F,15.2,0x00c000,-38.0,0.00e-0
1664219649,C;S;V;F,14.6,0x00c000,-38.1,0.00e-0
1664219650,C;S;V;F,13.9,0x00c000,-38.6,0.00e-0
1664219651,C;S;V;F,14.0,0x00c000,-38.8,0.00e-0
1664219652,C;S;V;F,14.3,0x00c000,-38.4,0.00e-0
1664219653,C;S;V;F,14.4,0x00c000,-38.3,
1664219654,,14.7,0x00c000,-37.9,0.00e-0
1664219655,C;S;V;F,15.0,0x00c000,-37.9,0.00e-0
1664219656,C;S;V;F,15.0,0x00c000,-37.6,0.00e-0
1664219657,C;S;V;F,,0x00c000,-37.3,0.00e-0
1664219658,C;S;V;F,15.3,0x00c000,,0.00e-0
1664219659,C;S;V;F,15.6,0x00c000,-36.7,0.00e-0
1664219660,C;S;V;F,15.8,0x00c000,-36.7,0.00e-0
1664219661,C;S;V;F,16.0,0x00c000,-36.3,
1664219662,,16.0,0x00c000,-36.4,0.00e-0
1664219663,C;S;V;F,16.0,0x00c000,-36.3,0.00e-0
1664219664,C;S;V;F,15.9,0x00c000,-36.4,0.00e-0
1664219665,C;S;V;F,,0x00c000,-36.7,0.00e-0
1664219666,C;S;V;F,15.9,0x00c000,-36.8,0.00e-0
1664219667,C;S;V;F,15.8,0x00c000,,0.00e-0
1664219668,C;S;V;F,15.4,0x00c000,-37.2,0.00e-0
1664219669,C;S;V;F,15.2,0x00c000,-37.6,0.00e-0
1664219670,C;S;V;F,14.8,0x00c000,-37.5,0.00e-0
1664219671,C;S;V;F,15.5,0x00c000,-37.2,0.00e-0
1664219672,C;S;V;F,15.6,0x00c000,-36.8,0.00e-0
1664219673,,16.2,0x00c000,-36.5,
1664219674,C;S;V;F,16.5,0x00c000,-36.1,0.00e-0
1664219675,C;S;V;F,16.6,0x00c000,-35.9,0.00e-0
1664219676,C;S;V;F,,0x00c000,,0.00e-0
1664219678,,16.4,0x00c000,-36.1,
1664219679,C;S;V;F,16.3,0x00c000,-36.4,0.00e-0
1664219680,C;S;V;F,,0x00c000,,0.00e-0
1664219681,C;S;V;F,15.5,0x00c000,-37.1,0.00e-0
1664219682,C;S;V;F,15.4,0x00c000,-37.5,0.00e-0